World > North America > United States > Ohio > Kelloggsville  

Kelloggsville, OH Hourly Weather Updates

Feedback E-mail the Weather

Quick Clicks

Kelloggsville, OH Weather Maps

°F °C°F °C
Kelloggsville Weather Map
UTC Time: 6/20/2024, 19:41
Your Time:

Kelloggsville, OH Regional Weather

Expires:202406202000;;364564
ASUS41 KCLE 201912
RWRCLE
OHIO REGIONAL WEATHER ROUNDUP
NATIONAL WEATHER SERVICE WILMINGTON, OH
300 PM EDT THU JUN 20 2024

NOTE: "FAIR" INDICATES FEW OR NO CLOUDS BELOW 12,000 FEET WITH NO
SIGNIFICANT WEATHER AND/OR OBSTRUCTIONS TO VISIBILITY.


OHZ009>014-019>023-028>033-038-089-202000-
   NORTHEAST OHIO
  
CITY           SKY/WX    TMP DP  RH WIND       PRES   REMARKS
CLE-HOPKINS    FAIR      92  65  40 W5        30.26F HX  94           
CLE-LAKEFRONT  FAIR      87  74  64 NE9       30.26F HX  95           
CUY CO. ARPT   MOSUNNY   88  70  55 N6        30.29F HX  92           
LORAIN-ELYRIA  NOT AVBL                                               
ASHTABULA      FAIR      90  69  50 CALM      30.29F HX  94           
AKRON-CANTON   FAIR      90  66  45 S8        30.31F HX  92           
WOOSTER        FAIR      91  67  44 S6        30.31F HX  94           
MANSFIELD      FAIR      91  64  40 VRB5      30.30F HX  92           
YOUNGSTOWN     PTSUNNY   90  70  51 VRB5      30.31F HX  95           
$$
 

SKY/WX - Weather  TMP - Temperature  DP - Dew Point  RH - Humidity
WIND - Wind Direction/Speed PRES - Barometric Pressure VSB - Visibility
WCI - Wind Chill Index E13G22 Wind - East Wind 13 mph/Gusts of 22 mph

Trending Headlines

Trending Entertainment Headlines

Kelloggsville Radar Loop

Use the map search tool if you want to place a location marker on the radar map...

Kelloggsville Quick Facts

National Two Day Weather Forecast


E-mail the Kelloggsville Weather Forecast

Voice your opinion or tell us about page issues...